Location: Pasarilla del Rebollar
(40.6790°N, 5.0062°W)
Time: 11:10:15
(UTC+00:00)

USA 267 - Pass Details

Date: 22 April 2026
Orbit: 1101 x 1107 km, 123.0° (Epoch: 10 January)

Event Time Altitude Azimuth Distance (km) Brightness Sun altitude
Rises 01:26:44 0° 53° (NE) 3,931 6.9 -34.9°
Reaches altitude 10° 01:29:26 10° 61° (ENE) 2,970 6.0 -34.7°
Enters shadow 01:34:01 34° 100° (E) 1,720 4.3 -34.4°
